Previsão horária em Barsh

Hoje, 24 Outubro, Sábado

Tempo Temperatura Precipitação Vento Pressão Humidade
00:00 0°C° 0.6 mm 7 m/s 740 mmHg 95%
01:00 0°C° 0.6 mm 7 m/s 739 mmHg 95%
02:00 +2°C° 0.4 mm 7 m/s 738 mmHg 95%
03:00 +2°C° 0.4 mm 6 m/s 738 mmHg 96%
04:00 +3°C° 0.4 mm 6 m/s 737 mmHg 96%
05:00 +3°C° 0.2 mm 6 m/s 737 mmHg 97%
06:00 +4°C° 0.2 mm 7 m/s 736 mmHg 97%
07:00 +4°C° 0.2 mm 7 m/s 735 mmHg 97%
08:00 +4°C° 1.2 mm 7 m/s 735 mmHg 97%
09:00 +5°C° 1.2 mm 7 m/s 735 mmHg 97%
10:00 +5°C° 1.2 mm 7 m/s 735 mmHg 97%
11:00 +6°C° 0.3 mm 7 m/s 735 mmHg 96%
12:00 +8°C° 0.3 mm 6 m/s 734 mmHg 95%
13:00 +8°C° 0.3 mm 6 m/s 734 mmHg 94%
14:00 +9°C° 0.1 mm 6 m/s 734 mmHg 92%
15:00 +9°C° 0.1 mm 5 m/s 735 mmHg 90%
16:00 +9°C° 0.1 mm 5 m/s 735 mmHg 88%
17:00 +10°C° 0.1 mm 4 m/s 736 mmHg 88%
18:00 +8°C° 0.1 mm 4 m/s 736 mmHg 88%
19:00 +8°C° 0.1 mm 4 m/s 736 mmHg 88%
20:00 +8°C° 0.1 mm 4 m/s 737 mmHg 88%
21:00 +8°C° 0.1 mm 4 m/s 737 mmHg 88%
22:00 +8°C° 0.1 mm 4 m/s 738 mmHg 87%
23:00 +8°C° 0 mm 4 m/s 738 mmHg 86%

Amanhã, 25 Outubro, Domingo

Tempo Temperatura Precipitação Vento Pressão Humidade
00:00 +7°C° 0 mm 4 m/s 738 mmHg 85%
01:00 +8°C° 0 mm 3 m/s 738 mmHg 83%
02:00 +8°C° 0 mm 3 m/s 738 mmHg 84%
03:00 +8°C° 0 mm 3 m/s 738 mmHg 84%
04:00 +8°C° 0 mm 3 m/s 738 mmHg 85%
05:00 +7°C° 0 mm 3 m/s 738 mmHg 86%
06:00 +7°C° 0 mm 2 m/s 738 mmHg 87%
07:00 +6°C° 0 mm 2 m/s 738 mmHg 88%
08:00 +7°C° 0 mm 2 m/s 738 mmHg 84%
09:00 +8°C° 0 mm 3 m/s 738 mmHg 81%
10:00 +8°C° 0 mm 3 m/s 738 mmHg 77%
11:00 +9°C° 0 mm 3 m/s 738 mmHg 76%
12:00 +9°C° 0 mm 3 m/s 737 mmHg 76%
13:00 +9°C° 0 mm 3 m/s 737 mmHg 76%
14:00 +9°C° 0.1 mm 2 m/s 737 mmHg 79%
15:00 +8°C° 0.1 mm 2 m/s 736 mmHg 82%
16:00 +9°C° 0.1 mm 1 m/s 736 mmHg 85%
17:00 +9°C° 0.5 mm 1 m/s 735 mmHg 88%
18:00 +8°C° 0.5 mm 1 m/s 735 mmHg 91%
19:00 +8°C° 0.5 mm 1 m/s 734 mmHg 94%
20:00 +7°C° 0.4 mm 2 m/s 734 mmHg 93%
21:00 +7°C° 0.4 mm 2 m/s 734 mmHg 93%
22:00 +7°C° 0.4 mm 3 m/s 734 mmHg 92%
23:00 +5°C° 0.2 mm 4 m/s 734 mmHg 91%

Depois de amanhã, 26 Outubro, Segunda-feira

Tempo Temperatura Precipitação Vento Pressão Humidade
00:00 +5°C° 0.2 mm 5 m/s 734 mmHg 90%
01:00 +4°C° 0.2 mm 6 m/s 734 mmHg 88%
02:00 +3°C° 0.1 mm 6 m/s 735 mmHg 87%
03:00 +3°C° 0.1 mm 6 m/s 736 mmHg 86%
04:00 +2°C° 0.1 mm 7 m/s 736 mmHg 86%
05:00 0°C° 0 mm 7 m/s 737 mmHg 83%
06:00 0°C° 0 mm 7 m/s 737 mmHg 81%
07:00 -1°C° 0 mm 7 m/s 738 mmHg 78%
08:00 -1°C° 0 mm 7 m/s 738 mmHg 76%
09:00 -1°C° 0 mm 7 m/s 739 mmHg 74%
10:00 -1°C° 0 mm 7 m/s 740 mmHg 72%
11:00 -1°C° 0 mm 7 m/s 740 mmHg 71%
12:00 -1°C° 0 mm 7 m/s 740 mmHg 70%
13:00 -1°C° 0 mm 7 m/s 740 mmHg 69%
14:00 -1°C° 0 mm 7 m/s 741 mmHg 70%
15:00 -1°C° 0 mm 7 m/s 741 mmHg 70%
16:00 -1°C° 0 mm 7 m/s 741 mmHg 71%
17:00 -1°C° 0.1 mm 7 m/s 741 mmHg 73%
18:00 -2°C° 0.1 mm 7 m/s 742 mmHg 74%
19:00 -4°C° 0.1 mm 8 m/s 742 mmHg 76%
20:00 -4°C° 0 mm 8 m/s 742 mmHg 76%
21:00 -4°C° 0 mm 8 m/s 743 mmHg 76%
22:00 -4°C° 0 mm 7 m/s 743 mmHg 77%
23:00 -5°C° 0 mm 8 m/s 744 mmHg 76%

, 27 Outubro, Terça-feira

Tempo Temperatura Precipitação Vento Pressão Humidade
00:00 -5°C° 0 mm 8 m/s 744 mmHg 76%
01:00 -5°C° 0 mm 8 m/s 745 mmHg 76%
02:00 -4°C° 0 mm 7 m/s 745 mmHg 76%
03:00 -4°C° 0 mm 7 m/s 745 mmHg 75%
04:00 -4°C° 0 mm 7 m/s 746 mmHg 75%
05:00 -4°C° 0 mm 7 m/s 746 mmHg 75%
06:00 -4°C° 0 mm 7 m/s 747 mmHg 76%
07:00 -4°C° 0 mm 7 m/s 747 mmHg 76%
08:00 -4°C° 0 mm 7 m/s 747 mmHg 74%
09:00 -4°C° 0 mm 7 m/s 748 mmHg 72%
10:00 -3°C° 0 mm 7 m/s 748 mmHg 71%
11:00 -3°C° 0 mm 7 m/s 749 mmHg 71%
12:00 -3°C° 0 mm 6 m/s 749 mmHg 70%
13:00 -2°C° 0 mm 6 m/s 750 mmHg 70%
14:00 -3°C° 0 mm 6 m/s 750 mmHg 71%
15:00 -3°C° 0 mm 6 m/s 750 mmHg 73%
16:00 -2°C° 0 mm 5 m/s 751 mmHg 74%
17:00 -2°C° 0 mm 5 m/s 751 mmHg 77%
18:00 -3°C° 0 mm 4 m/s 752 mmHg 80%
19:00 -2°C° 0 mm 3 m/s 752 mmHg 83%
20:00 -2°C° 0 mm 3 m/s 752 mmHg 84%
21:00 -2°C° 0 mm 3 m/s 752 mmHg 84%
22:00 -4°C° 0 mm 3 m/s 753 mmHg 84%
23:00 -4°C° 0 mm 3 m/s 753 mmHg 84%

27 Outubro, Terça-feira

Tempo Temperatura Precipitação Vento Pressão Humidade
00:00 -5°C° 0 mm 8 m/s 744 mmHg 76%
01:00 -5°C° 0 mm 8 m/s 745 mmHg 76%
02:00 -4°C° 0 mm 7 m/s 745 mmHg 76%
03:00 -4°C° 0 mm 7 m/s 745 mmHg 75%
04:00 -4°C° 0 mm 7 m/s 746 mmHg 75%
05:00 -4°C° 0 mm 7 m/s 746 mmHg 75%
06:00 -4°C° 0 mm 7 m/s 747 mmHg 76%
07:00 -4°C° 0 mm 7 m/s 747 mmHg 76%
08:00 -4°C° 0 mm 7 m/s 747 mmHg 74%
09:00 -4°C° 0 mm 7 m/s 748 mmHg 72%
10:00 -3°C° 0 mm 7 m/s 748 mmHg 71%
11:00 -3°C° 0 mm 7 m/s 749 mmHg 71%
12:00 -3°C° 0 mm 6 m/s 749 mmHg 70%
13:00 -2°C° 0 mm 6 m/s 750 mmHg 70%
14:00 -3°C° 0 mm 6 m/s 750 mmHg 71%
15:00 -3°C° 0 mm 6 m/s 750 mmHg 73%
16:00 -2°C° 0 mm 5 m/s 751 mmHg 74%
17:00 -2°C° 0 mm 5 m/s 751 mmHg 77%
18:00 -3°C° 0 mm 4 m/s 752 mmHg 80%
19:00 -2°C° 0 mm 3 m/s 752 mmHg 83%
20:00 -2°C° 0 mm 3 m/s 752 mmHg 84%
21:00 -2°C° 0 mm 3 m/s 752 mmHg 84%
22:00 -4°C° 0 mm 3 m/s 753 mmHg 84%
23:00 -4°C° 0 mm 3 m/s 753 mmHg 84%

28 Outubro, Quarta-feira

Tempo Temperatura Precipitação Vento Pressão Humidade
00:00 -3°C° 0 mm 2 m/s 753 mmHg 84%
01:00 -3°C° 0 mm 2 m/s 754 mmHg 84%
02:00 -3°C° 0 mm 2 m/s 754 mmHg 84%
03:00 -3°C° 0 mm 2 m/s 754 mmHg 84%
04:00 -3°C° 0 mm 2 m/s 754 mmHg 84%
05:00 -3°C° 0 mm 2 m/s 755 mmHg 84%
06:00 -3°C° 0 mm 2 m/s 755 mmHg 84%
07:00 -3°C° 0 mm 2 m/s 755 mmHg 84%
08:00 -3°C° 0 mm 2 m/s 756 mmHg 79%
09:00 -2°C° 0 mm 2 m/s 756 mmHg 74%
10:00 -1°C° 0 mm 2 m/s 756 mmHg 69%
11:00 +1°C° 0 mm 2 m/s 756 mmHg 65%
12:00 +2°C° 0 mm 2 m/s 756 mmHg 61%
13:00 +4°C° 0 mm 1 m/s 757 mmHg 57%
14:00 +3°C° 0 mm 1 m/s 757 mmHg 60%
15:00 +3°C° 0 mm 1 m/s 757 mmHg 62%
16:00 +3°C° 0 mm 1 m/s 757 mmHg 65%
17:00 +1°C° 0 mm 0 m/s 757 mmHg 68%
18:00 0°C° 0 mm 0 m/s 757 mmHg 70%
19:00 0°C° 0 mm 0 m/s 757 mmHg 73%
20:00 -1°C° 0 mm 0 m/s 757 mmHg 73%
21:00 -1°C° 0 mm 0 m/s 757 mmHg 73%
22:00 -1°C° 0 mm 0 m/s 757 mmHg 73%
23:00 -1°C° 0 mm 0 m/s 757 mmHg 73%

29 Outubro, Quinta-feira

Tempo Temperatura Precipitação Vento Pressão Humidade
00:00 0°C° 0 mm 1 m/s 758 mmHg 73%
01:00 0°C° 0 mm 1 m/s 758 mmHg 73%
02:00 0°C° 0 mm 1 m/s 758 mmHg 73%
03:00 0°C° 0 mm 1 m/s 758 mmHg 73%
04:00 -2°C° 0 mm 2 m/s 758 mmHg 73%
05:00 -2°C° 0 mm 2 m/s 758 mmHg 73%
06:00 -2°C° 0 mm 2 m/s 758 mmHg 74%
07:00 -2°C° 0 mm 2 m/s 758 mmHg 74%
08:00 -1°C° 0 mm 2 m/s 758 mmHg 70%
09:00 0°C° 0 mm 3 m/s 758 mmHg 66%
10:00 +1°C° 0 mm 3 m/s 758 mmHg 63%
11:00 +2°C° 0 mm 3 m/s 758 mmHg 60%
12:00 +3°C° 0 mm 4 m/s 758 mmHg 58%
13:00 +3°C° 0 mm 4 m/s 758 mmHg 56%
14:00 +3°C° 0 mm 3 m/s 758 mmHg 59%
15:00 +3°C° 0 mm 3 m/s 758 mmHg 62%
16:00 +2°C° 0 mm 3 m/s 758 mmHg 65%
17:00 +2°C° 0 mm 3 m/s 758 mmHg 68%
18:00 +1°C° 0 mm 3 m/s 758 mmHg 72%
19:00 0°C° 0 mm 3 m/s 758 mmHg 75%
20:00 0°C° 0 mm 3 m/s 758 mmHg 75%
21:00 0°C° 0 mm 3 m/s 758 mmHg 74%
22:00 +1°C° 0 mm 2 m/s 758 mmHg 74%
23:00 +1°C° 0 mm 2 m/s 758 mmHg 74%
Mostrar mais